Year,Month,Day,Hour,Minute,Value (Times are PST for insolation in W/m^2)
2013,11,09,00,00,0.00
2013,11,09,00,01,0.00
2013,11,09,00,02,0.00
2013,11,09,00,03,0.00
2013,11,09,00,04,0.00
2013,11,09,00,05,0.00
2013,11,09,00,06,0.00
2013,11,09,00,07,0.00
2013,11,09,00,08,0.00
2013,11,09,00,09,0.00
2013,11,09,00,10,0.00
2013,11,09,00,11,0.00
2013,11,09,00,12,0.00
2013,11,09,00,13,0.00
2013,11,09,00,14,0.00
2013,11,09,00,15,0.00
2013,11,09,00,16,0.00
2013,11,09,00,17,0.00
2013,11,09,00,18,0.00
2013,11,09,00,19,0.00
2013,11,09,00,20,0.00
2013,11,09,00,21,0.00
2013,11,09,00,22,0.00
2013,11,09,00,23,0.00
2013,11,09,00,24,0.00
2013,11,09,00,25,0.00
2013,11,09,00,26,0.00
2013,11,09,00,27,0.00
2013,11,09,00,28,0.00
2013,11,09,00,29,0.00
2013,11,09,00,30,0.00
2013,11,09,00,31,0.00
2013,11,09,00,32,0.00
2013,11,09,00,33,0.00
2013,11,09,00,34,0.00
2013,11,09,00,35,0.00
2013,11,09,00,36,0.00
2013,11,09,00,37,0.00
2013,11,09,00,38,0.00
2013,11,09,00,39,0.00
2013,11,09,00,40,0.00
2013,11,09,00,41,0.00
2013,11,09,00,42,0.00
2013,11,09,00,43,0.00
2013,11,09,00,44,0.00
2013,11,09,00,45,0.00
2013,11,09,00,46,0.00
2013,11,09,00,47,0.00
2013,11,09,00,48,0.00
2013,11,09,00,49,0.00
2013,11,09,00,50,0.00
2013,11,09,00,51,0.00
2013,11,09,00,52,0.00
2013,11,09,00,53,0.00
2013,11,09,00,54,0.00
2013,11,09,00,55,0.00
2013,11,09,00,56,0.00
2013,11,09,00,57,0.00
2013,11,09,00,58,0.00
2013,11,09,00,59,0.00
2013,11,09,01,00,0.00
2013,11,09,01,01,0.00
2013,11,09,01,02,0.00
2013,11,09,01,03,0.00
2013,11,09,01,04,0.00
2013,11,09,01,05,0.00
2013,11,09,01,06,0.00
2013,11,09,01,07,0.00
2013,11,09,01,08,0.00
2013,11,09,01,09,0.00
2013,11,09,01,10,0.00
2013,11,09,01,11,0.00
2013,11,09,01,12,0.00
2013,11,09,01,13,0.00
2013,11,09,01,14,0.00
2013,11,09,01,15,0.00
2013,11,09,01,16,0.00
2013,11,09,01,17,0.00
2013,11,09,01,18,0.00
2013,11,09,01,19,0.00
2013,11,09,01,20,0.00
2013,11,09,01,21,0.00
2013,11,09,01,22,0.00
2013,11,09,01,23,0.00
2013,11,09,01,24,0.00
2013,11,09,01,25,0.00
2013,11,09,01,26,0.00
2013,11,09,01,27,0.00
2013,11,09,01,28,0.00
2013,11,09,01,29,0.00
2013,11,09,01,30,0.00
2013,11,09,01,31,0.00
2013,11,09,01,32,0.00
2013,11,09,01,33,0.00
2013,11,09,01,34,0.00
2013,11,09,01,35,0.00
2013,11,09,01,36,0.00
2013,11,09,01,37,0.00
2013,11,09,01,38,0.00
2013,11,09,01,39,0.00
2013,11,09,01,40,0.00
2013,11,09,01,41,0.00
2013,11,09,01,42,0.00
2013,11,09,01,43,0.00
2013,11,09,01,44,0.00
2013,11,09,01,45,0.00
2013,11,09,01,46,0.00
2013,11,09,01,47,0.00
2013,11,09,01,48,0.00
2013,11,09,01,49,0.00
2013,11,09,01,50,0.00
2013,11,09,01,51,0.00
2013,11,09,01,52,0.00
2013,11,09,01,53,0.00
2013,11,09,01,54,0.00
2013,11,09,01,55,0.00
2013,11,09,01,56,0.00
2013,11,09,01,57,0.00
2013,11,09,01,58,0.00
2013,11,09,01,59,0.00
2013,11,09,02,00,0.00
2013,11,09,02,01,0.00
2013,11,09,02,02,0.00
2013,11,09,02,03,0.00
2013,11,09,02,04,0.00
2013,11,09,02,05,0.00
2013,11,09,02,06,0.00
2013,11,09,02,07,0.00
2013,11,09,02,08,0.00
2013,11,09,02,09,0.00
2013,11,09,02,10,0.00
2013,11,09,02,11,0.00
2013,11,09,02,12,0.00
2013,11,09,02,13,0.00
2013,11,09,02,14,0.00
2013,11,09,02,15,0.00
2013,11,09,02,16,0.00
2013,11,09,02,17,0.00
2013,11,09,02,18,0.00
2013,11,09,02,19,0.00
2013,11,09,02,20,0.00
2013,11,09,02,21,0.00
2013,11,09,02,22,0.00
2013,11,09,02,23,0.00
2013,11,09,02,24,0.00
2013,11,09,02,25,0.00
2013,11,09,02,26,0.00
2013,11,09,02,27,0.00
2013,11,09,02,28,0.00
2013,11,09,02,29,0.00
2013,11,09,02,30,0.00
2013,11,09,02,31,0.00
2013,11,09,02,32,0.00
2013,11,09,02,33,0.00
2013,11,09,02,34,0.00
2013,11,09,02,35,0.00
2013,11,09,02,36,0.00
2013,11,09,02,37,0.00
2013,11,09,02,38,0.00
2013,11,09,02,39,0.00
2013,11,09,02,40,0.00
2013,11,09,02,41,0.00
2013,11,09,02,42,0.00
2013,11,09,02,43,0.00
2013,11,09,02,44,0.00
2013,11,09,02,45,0.00
2013,11,09,02,46,0.00
2013,11,09,02,47,0.00
2013,11,09,02,48,0.00
2013,11,09,02,49,0.00
2013,11,09,02,50,0.00
2013,11,09,02,51,0.00
2013,11,09,02,52,0.00
2013,11,09,02,53,0.00
2013,11,09,02,54,0.00
2013,11,09,02,55,0.00
2013,11,09,02,56,0.00
2013,11,09,02,57,0.00
2013,11,09,02,58,0.00
2013,11,09,02,59,0.00
2013,11,09,03,00,0.00
2013,11,09,03,01,0.00
2013,11,09,03,02,0.00
2013,11,09,03,03,0.00
2013,11,09,03,04,0.00
2013,11,09,03,05,0.00
2013,11,09,03,06,0.00
2013,11,09,03,07,0.00
2013,11,09,03,08,0.00
2013,11,09,03,09,0.00
2013,11,09,03,10,0.00
2013,11,09,03,11,0.00
2013,11,09,03,12,0.00
2013,11,09,03,13,0.00
2013,11,09,03,14,0.00
2013,11,09,03,15,0.00
2013,11,09,03,16,0.00
2013,11,09,03,17,0.00
2013,11,09,03,18,0.00
2013,11,09,03,19,0.00
2013,11,09,03,20,0.00
2013,11,09,03,21,0.00
2013,11,09,03,22,0.00
2013,11,09,03,23,0.00
2013,11,09,03,24,0.00
2013,11,09,03,25,0.00
2013,11,09,03,26,0.00
2013,11,09,03,27,0.00
2013,11,09,03,28,0.00
2013,11,09,03,29,0.00
2013,11,09,03,30,0.00
2013,11,09,03,31,0.00
2013,11,09,03,32,0.00
2013,11,09,03,33,0.00
2013,11,09,03,34,0.00
2013,11,09,03,35,0.00
2013,11,09,03,36,0.00
2013,11,09,03,37,0.00
2013,11,09,03,38,0.00
2013,11,09,03,39,0.00
2013,11,09,03,40,0.00
2013,11,09,03,41,0.00
2013,11,09,03,42,0.00
2013,11,09,03,43,0.00
2013,11,09,03,44,0.00
2013,11,09,03,45,0.00
2013,11,09,03,46,0.00
2013,11,09,03,47,0.00
2013,11,09,03,48,0.00
2013,11,09,03,49,0.00
2013,11,09,03,50,0.00
2013,11,09,03,51,0.00
2013,11,09,03,52,0.00
2013,11,09,03,53,0.00
2013,11,09,03,54,0.00
2013,11,09,03,55,0.00
2013,11,09,03,56,0.00
2013,11,09,03,57,0.00
2013,11,09,03,58,0.00
2013,11,09,03,59,0.00
2013,11,09,04,00,0.00
2013,11,09,04,01,0.00
2013,11,09,04,02,0.00
2013,11,09,04,03,0.00
2013,11,09,04,04,0.00
2013,11,09,04,05,0.00
2013,11,09,04,06,0.00
2013,11,09,04,07,0.00
2013,11,09,04,08,0.00
2013,11,09,04,09,0.00
2013,11,09,04,10,0.00
2013,11,09,04,11,0.00
2013,11,09,04,12,0.00
2013,11,09,04,13,0.00
2013,11,09,04,14,0.00
2013,11,09,04,15,0.00
2013,11,09,04,16,0.00
2013,11,09,04,17,0.00
2013,11,09,04,18,0.00
2013,11,09,04,19,0.00
2013,11,09,04,20,0.00
2013,11,09,04,21,0.00
2013,11,09,04,22,0.00
2013,11,09,04,23,0.00
2013,11,09,04,24,0.00
2013,11,09,04,25,0.00
2013,11,09,04,26,0.00
2013,11,09,04,27,0.00
2013,11,09,04,28,0.00
2013,11,09,04,29,0.00
2013,11,09,04,30,0.00
2013,11,09,04,31,0.00
2013,11,09,04,32,0.00
2013,11,09,04,33,0.00
2013,11,09,04,34,0.00
2013,11,09,04,35,0.00
2013,11,09,04,36,0.00
2013,11,09,04,37,0.00
2013,11,09,04,38,0.00
2013,11,09,04,39,0.00
2013,11,09,04,40,0.00
2013,11,09,04,41,0.00
2013,11,09,04,42,0.00
2013,11,09,04,43,0.00
2013,11,09,04,44,0.00
2013,11,09,04,45,0.00
2013,11,09,04,46,0.00
2013,11,09,04,47,0.00
2013,11,09,04,48,0.00
2013,11,09,04,49,0.00
2013,11,09,04,50,0.00
2013,11,09,04,51,0.00
2013,11,09,04,52,0.00
2013,11,09,04,53,0.00
2013,11,09,04,54,0.00
2013,11,09,04,55,0.00
2013,11,09,04,56,0.00
2013,11,09,04,57,0.00
2013,11,09,04,58,0.00
2013,11,09,04,59,0.00
2013,11,09,05,00,0.00
2013,11,09,05,01,0.00
2013,11,09,05,02,0.00
2013,11,09,05,03,0.00
2013,11,09,05,04,0.00
2013,11,09,05,05,0.00
2013,11,09,05,06,0.00
2013,11,09,05,07,0.00
2013,11,09,05,08,0.00
2013,11,09,05,09,0.00
2013,11,09,05,10,0.00
2013,11,09,05,11,0.00
2013,11,09,05,12,0.00
2013,11,09,05,13,0.00
2013,11,09,05,14,0.00
2013,11,09,05,15,0.00
2013,11,09,05,16,0.00
2013,11,09,05,17,0.00
2013,11,09,05,18,0.00
2013,11,09,05,19,0.00
2013,11,09,05,20,0.00
2013,11,09,05,21,0.00
2013,11,09,05,22,0.00
2013,11,09,05,23,0.00
2013,11,09,05,24,0.00
2013,11,09,05,25,0.00
2013,11,09,05,26,0.00
2013,11,09,05,27,0.00
2013,11,09,05,28,0.00
2013,11,09,05,29,0.00
2013,11,09,05,30,0.00
2013,11,09,05,31,0.00
2013,11,09,05,32,0.00
2013,11,09,05,33,0.00
2013,11,09,05,34,0.00
2013,11,09,05,35,0.00
2013,11,09,05,36,0.00
2013,11,09,05,37,0.00
2013,11,09,05,38,0.00
2013,11,09,05,39,0.00
2013,11,09,05,40,0.00
2013,11,09,05,41,0.00
2013,11,09,05,42,0.00
2013,11,09,05,43,0.00
2013,11,09,05,44,0.00
2013,11,09,05,45,0.00
2013,11,09,05,46,0.00
2013,11,09,05,47,0.00
2013,11,09,05,48,0.00
2013,11,09,05,49,0.00
2013,11,09,05,50,0.00
2013,11,09,05,51,0.00
2013,11,09,05,52,0.00
2013,11,09,05,53,0.00
2013,11,09,05,54,0.00
2013,11,09,05,55,0.00
2013,11,09,05,56,0.00
2013,11,09,05,57,0.00
2013,11,09,05,58,0.00
2013,11,09,05,59,0.00
2013,11,09,06,00,0.00
2013,11,09,06,01,0.00
2013,11,09,06,02,0.00
2013,11,09,06,03,0.00
2013,11,09,06,04,0.00
2013,11,09,06,05,0.00
2013,11,09,06,06,0.00
2013,11,09,06,07,0.00
2013,11,09,06,08,0.00
2013,11,09,06,09,0.00
2013,11,09,06,10,0.00
2013,11,09,06,11,0.00
2013,11,09,06,12,0.00
2013,11,09,06,13,0.00
2013,11,09,06,14,0.00
2013,11,09,06,15,0.00
2013,11,09,06,16,0.00
2013,11,09,06,17,0.00
2013,11,09,06,18,0.00
2013,11,09,06,19,0.00
2013,11,09,06,20,0.00
2013,11,09,06,21,0.00
2013,11,09,06,22,0.00
2013,11,09,06,23,0.00
2013,11,09,06,24,0.00
2013,11,09,06,25,0.00
2013,11,09,06,26,0.00
2013,11,09,06,27,0.00
2013,11,09,06,28,0.00
2013,11,09,06,29,0.00
2013,11,09,06,30,0.00
2013,11,09,06,31,0.00
2013,11,09,06,32,0.00
2013,11,09,06,33,0.00
2013,11,09,06,34,0.00
2013,11,09,06,35,0.00
2013,11,09,06,36,0.00
2013,11,09,06,37,0.00
2013,11,09,06,38,0.00
2013,11,09,06,39,0.00
2013,11,09,06,40,0.00
2013,11,09,06,41,0.00
2013,11,09,06,42,0.00
2013,11,09,06,43,0.00
2013,11,09,06,44,0.00
2013,11,09,06,45,0.00
2013,11,09,06,46,0.00
2013,11,09,06,47,0.00
2013,11,09,06,48,0.00
2013,11,09,06,49,0.00
2013,11,09,06,50,0.00
2013,11,09,06,51,0.00
2013,11,09,06,52,0.00
2013,11,09,06,53,0.00
2013,11,09,06,54,0.00
2013,11,09,06,55,0.00
2013,11,09,06,56,0.00
2013,11,09,06,57,0.00
2013,11,09,06,58,0.00
2013,11,09,06,59,0.00
2013,11,09,07,00,0.00
2013,11,09,07,01,0.00
2013,11,09,07,02,0.00
2013,11,09,07,03,0.00
2013,11,09,07,04,0.00
2013,11,09,07,05,0.00
2013,11,09,07,06,0.00
2013,11,09,07,07,0.00
2013,11,09,07,08,0.00
2013,11,09,07,09,0.00
2013,11,09,07,10,0.00
2013,11,09,07,11,0.00
2013,11,09,07,12,0.00
2013,11,09,07,13,0.00
2013,11,09,07,14,0.00
2013,11,09,07,15,0.00
2013,11,09,07,16,0.00
2013,11,09,07,17,0.00
2013,11,09,07,18,0.00
2013,11,09,07,19,0.00
2013,11,09,07,20,0.00
2013,11,09,07,21,0.00
2013,11,09,07,22,0.00
2013,11,09,07,23,0.00
2013,11,09,07,24,0.00
2013,11,09,07,25,0.00
2013,11,09,07,26,0.00
2013,11,09,07,27,0.00
2013,11,09,07,28,0.00
2013,11,09,07,29,0.00
2013,11,09,07,30,0.50
2013,11,09,07,31,5.20
2013,11,09,07,32,7.00
2013,11,09,07,33,7.40
2013,11,09,07,34,9.50
2013,11,09,07,35,11.00
2013,11,09,07,36,11.00
2013,11,09,07,37,11.40
2013,11,09,07,38,12.80
2013,11,09,07,39,14.90
2013,11,09,07,40,17.00
2013,11,09,07,41,19.60
2013,11,09,07,42,22.10
2013,11,09,07,43,24.20
2013,11,09,07,44,27.00
2013,11,09,07,45,31.50
2013,11,09,07,46,35.90
2013,11,09,07,47,39.30
2013,11,09,07,48,41.60
2013,11,09,07,49,43.70
2013,11,09,07,50,45.80
2013,11,09,07,51,46.00
2013,11,09,07,52,46.00
2013,11,09,07,53,46.00
2013,11,09,07,54,47.20
2013,11,09,07,55,49.60
2013,11,09,07,56,53.20
2013,11,09,07,57,55.00
2013,11,09,07,58,58.00
2013,11,09,07,59,58.60
2013,11,09,08,00,60.00
2013,11,09,08,01,60.00
2013,11,09,08,02,60.00
2013,11,09,08,03,60.00
2013,11,09,08,04,60.00
2013,11,09,08,05,60.00
2013,11,09,08,06,61.20
2013,11,09,08,07,62.60
2013,11,09,08,08,64.40
2013,11,09,08,09,65.00
2013,11,09,08,10,65.00
2013,11,09,08,11,65.00
2013,11,09,08,12,65.00
2013,11,09,08,13,63.20
2013,11,09,08,14,60.10
2013,11,09,08,15,58.00
2013,11,09,08,16,55.90
2013,11,09,08,17,54.00
2013,11,09,08,18,53.90
2013,11,09,08,19,53.00
2013,11,09,08,20,53.00
2013,11,09,08,21,53.30
2013,11,09,08,22,54.00
2013,11,09,08,23,54.00
2013,11,09,08,24,54.00
2013,11,09,08,25,54.00
2013,11,09,08,26,54.00
2013,11,09,08,27,54.00
2013,11,09,08,28,55.10
2013,11,09,08,29,57.20
2013,11,09,08,30,58.00
2013,11,09,08,31,58.00
2013,11,09,08,32,58.00
2013,11,09,08,33,58.00
2013,11,09,08,34,56.40
2013,11,09,08,35,56.00
2013,11,09,08,36,54.20
2013,11,09,08,37,54.00
2013,11,09,08,38,55.90
2013,11,09,08,39,56.10
2013,11,09,08,40,58.00
2013,11,09,08,41,58.30
2013,11,09,08,42,60.00
2013,11,09,08,43,60.50
2013,11,09,08,44,62.00
2013,11,09,08,45,62.30
2013,11,09,08,46,63.70
2013,11,09,08,47,65.00
2013,11,09,08,48,65.90
2013,11,09,08,49,68.00
2013,11,09,08,50,68.00
2013,11,09,08,51,67.00
2013,11,09,08,52,67.00
2013,11,09,08,53,65.70
2013,11,09,08,54,66.40
2013,11,09,08,55,67.00
2013,11,09,08,56,68.50
2013,11,09,08,57,69.80
2013,11,09,08,58,70.00
2013,11,09,08,59,70.00
2013,11,09,09,00,70.00
2013,11,09,09,01,70.00
2013,11,09,09,02,70.00
2013,11,09,09,03,70.00
2013,11,09,09,04,70.00
2013,11,09,09,05,70.00
2013,11,09,09,06,70.00
2013,11,09,09,07,70.00
2013,11,09,09,08,70.00
2013,11,09,09,09,69.70
2013,11,09,09,10,69.00
2013,11,09,09,11,68.10
2013,11,09,09,12,67.00
2013,11,09,09,13,67.00
2013,11,09,09,14,68.10
2013,11,09,09,15,69.00
2013,11,09,09,16,69.00
2013,11,09,09,17,69.00
2013,11,09,09,18,67.60
2013,11,09,09,19,67.00
2013,11,09,09,20,65.40
2013,11,09,09,21,63.30
2013,11,09,09,22,62.10
2013,11,09,09,23,60.10
2013,11,09,09,24,60.00
2013,11,09,09,25,60.00
2013,11,09,09,26,60.00
2013,11,09,09,27,60.00
2013,11,09,09,28,60.00
2013,11,09,09,29,60.00
2013,11,09,09,30,57.20
2013,11,09,09,31,49.60
2013,11,09,09,32,51.00
2013,11,09,09,33,50.20
2013,11,09,09,34,48.10
2013,11,09,09,35,46.50
2013,11,09,09,36,46.50
2013,11,09,09,37,49.30
2013,11,09,09,38,52.20
2013,11,09,09,39,53.70
2013,11,09,09,40,54.00
2013,11,09,09,41,56.90
2013,11,09,09,42,61.00
2013,11,09,09,43,64.40
2013,11,09,09,44,65.00
2013,11,09,09,45,63.20
2013,11,09,09,46,62.00
2013,11,09,09,47,58.10
2013,11,09,09,48,56.00
2013,11,09,09,49,56.00
2013,11,09,09,50,55.70
2013,11,09,09,51,54.00
2013,11,09,09,52,54.00
2013,11,09,09,53,54.60
2013,11,09,09,54,57.20
2013,11,09,09,55,62.50
2013,11,09,09,56,69.80
2013,11,09,09,57,76.10
2013,11,09,09,58,81.40
2013,11,09,09,59,87.10
2013,11,09,10,00,90.60
2013,11,09,10,01,91.00
2013,11,09,10,02,91.00
2013,11,09,10,03,90.30
2013,11,09,10,04,90.00
2013,11,09,10,05,90.00
2013,11,09,10,06,90.80
2013,11,09,10,07,90.10
2013,11,09,10,08,90.00
2013,11,09,10,09,88.10
2013,11,09,10,10,86.00
2013,11,09,10,11,83.00
2013,11,09,10,12,83.10
2013,11,09,10,13,84.60
2013,11,09,10,14,88.40
2013,11,09,10,15,90.20
2013,11,09,10,16,91.00
2013,11,09,10,17,92.20
2013,11,09,10,18,95.70
2013,11,09,10,19,97.40
2013,11,09,10,20,98.90
2013,11,09,10,21,101.90
2013,11,09,10,22,105.60
2013,11,09,10,23,108.10
2013,11,09,10,24,110.20
2013,11,09,10,25,112.30
2013,11,09,10,26,111.70
2013,11,09,10,27,111.00
2013,11,09,10,28,111.00
2013,11,09,10,29,111.00
2013,11,09,10,30,111.00
2013,11,09,10,31,111.00
2013,11,09,10,32,111.00
2013,11,09,10,33,111.00
2013,11,09,10,34,110.90
2013,11,09,10,35,109.00
2013,11,09,10,36,109.00
2013,11,09,10,37,109.00
2013,11,09,10,38,109.00
2013,11,09,10,39,107.90
2013,11,09,10,40,104.70
2013,11,09,10,41,104.00
2013,11,09,10,42,104.00
2013,11,09,10,43,103.10
2013,11,09,10,44,102.00
2013,11,09,10,45,102.00
2013,11,09,10,46,102.00
2013,11,09,10,47,103.20
2013,11,09,10,48,104.60
2013,11,09,10,49,106.40
2013,11,09,10,50,108.40
2013,11,09,10,51,110.50
2013,11,09,10,52,112.60
2013,11,09,10,53,113.90
2013,11,09,10,54,114.00
2013,11,09,10,55,114.00
2013,11,09,10,56,113.00
2013,11,09,10,57,112.50
2013,11,09,10,58,106.50
2013,11,09,10,59,101.40
2013,11,09,11,00,97.00
2013,11,09,11,01,92.30
2013,11,09,11,02,89.40
2013,11,09,11,03,86.80
2013,11,09,11,04,84.00
2013,11,09,11,05,84.00
2013,11,09,11,06,82.00
2013,11,09,11,07,80.00
2013,11,09,11,08,82.00
2013,11,09,11,09,83.60
2013,11,09,11,10,85.20
2013,11,09,11,11,87.30
2013,11,09,11,12,89.30
2013,11,09,11,13,90.70
2013,11,09,11,14,92.50
2013,11,09,11,15,96.20
2013,11,09,11,16,99.60
2013,11,09,11,17,104.50
2013,11,09,11,18,106.90
2013,11,09,11,19,110.80
2013,11,09,11,20,114.10
2013,11,09,11,21,116.00
2013,11,09,11,22,116.00
2013,11,09,11,23,115.60
2013,11,09,11,24,114.00
2013,11,09,11,25,113.10
2013,11,09,11,26,110.30
2013,11,09,11,27,107.20
2013,11,09,11,28,101.70
2013,11,09,11,29,95.90
2013,11,09,11,30,90.60
2013,11,09,11,31,85.40
2013,11,09,11,32,81.90
2013,11,09,11,33,81.00
2013,11,09,11,34,81.00
2013,11,09,11,35,79.70
2013,11,09,11,36,79.00
2013,11,09,11,37,77.50
2013,11,09,11,38,77.00
2013,11,09,11,39,77.00
2013,11,09,11,40,76.10
2013,11,09,11,41,74.10
2013,11,09,11,42,74.00
2013,11,09,11,43,73.90
2013,11,09,11,44,71.80
2013,11,09,11,45,70.00
2013,11,09,11,46,69.00
2013,11,09,11,47,64.50
2013,11,09,11,48,63.00
2013,11,09,11,49,63.00
2013,11,09,11,50,63.00
2013,11,09,11,51,64.50
2013,11,09,11,52,67.90
2013,11,09,11,53,69.50
2013,11,09,11,54,70.00
2013,11,09,11,55,70.00
2013,11,09,11,56,71.20
2013,11,09,11,57,72.00
2013,11,09,11,58,72.00
2013,11,09,11,59,73.40
2013,11,09,12,00,74.00
2013,11,09,12,01,75.60
2013,11,09,12,02,76.00
2013,11,09,12,03,76.00
2013,11,09,12,04,74.10
2013,11,09,12,05,74.00
2013,11,09,12,06,74.00
2013,11,09,12,07,73.80
2013,11,09,12,08,72.00
2013,11,09,12,09,71.60
2013,11,09,12,10,70.00
2013,11,09,12,11,70.00
2013,11,09,12,12,70.00
2013,11,09,12,13,70.00
2013,11,09,12,14,70.00
2013,11,09,12,15,69.60
2013,11,09,12,16,69.00
2013,11,09,12,17,69.00
2013,11,09,12,18,69.00
2013,11,09,12,19,67.80
2013,11,09,12,20,67.00
2013,11,09,12,21,67.00
2013,11,09,12,22,67.00
2013,11,09,12,23,65.50
2013,11,09,12,24,65.00
2013,11,09,12,25,65.00
2013,11,09,12,26,63.20
2013,11,09,12,27,63.00
2013,11,09,12,28,63.00
2013,11,09,12,29,63.00
2013,11,09,12,30,63.00
2013,11,09,12,31,63.00
2013,11,09,12,32,63.00
2013,11,09,12,33,63.00
2013,11,09,12,34,63.00
2013,11,09,12,35,63.00
2013,11,09,12,36,63.00
2013,11,09,12,37,63.80
2013,11,09,12,38,65.00
2013,11,09,12,39,65.00
2013,11,09,12,40,66.00
2013,11,09,12,41,68.10
2013,11,09,12,42,69.00
2013,11,09,12,43,69.60
2013,11,09,12,44,70.00
2013,11,09,12,45,70.00
2013,11,09,12,46,70.00
2013,11,09,12,47,71.60
2013,11,09,12,48,72.00
2013,11,09,12,49,73.80
2013,11,09,12,50,74.00
2013,11,09,12,51,74.00
2013,11,09,12,52,74.10
2013,11,09,12,53,76.00
2013,11,09,12,54,76.10
2013,11,09,12,55,77.00
2013,11,09,12,56,77.50
2013,11,09,12,57,79.60
2013,11,09,12,58,81.60
2013,11,09,12,59,83.00
2013,11,09,13,00,83.40
2013,11,09,13,01,84.00
2013,11,09,13,02,84.00
2013,11,09,13,03,85.00
2013,11,09,13,04,86.00
2013,11,09,13,05,86.00
2013,11,09,13,06,86.00
2013,11,09,13,07,86.00
2013,11,09,13,08,86.00
2013,11,09,13,09,86.00
2013,11,09,13,10,86.00
2013,11,09,13,11,86.00
2013,11,09,13,12,86.00
2013,11,09,13,13,86.00
2013,11,09,13,14,86.00
2013,11,09,13,15,85.90
2013,11,09,13,16,84.00
2013,11,09,13,17,83.90
2013,11,09,13,18,82.60
2013,11,09,13,19,80.50
2013,11,09,13,20,79.00
2013,11,09,13,21,78.40
2013,11,09,13,22,77.00
2013,11,09,13,23,77.00
2013,11,09,13,24,77.00
2013,11,09,13,25,77.00
2013,11,09,13,26,77.00
2013,11,09,13,27,77.00
2013,11,09,13,28,78.20
2013,11,09,13,29,79.00
2013,11,09,13,30,79.00
2013,11,09,13,31,79.00
2013,11,09,13,32,80.50
2013,11,09,13,33,81.00
2013,11,09,13,34,81.00
2013,11,09,13,35,81.00
2013,11,09,13,36,81.00
2013,11,09,13,37,83.00
2013,11,09,13,38,83.00
2013,11,09,13,39,82.80
2013,11,09,13,40,81.00
2013,11,09,13,41,80.60
2013,11,09,13,42,78.30
2013,11,09,13,43,74.90
2013,11,09,13,44,71.10
2013,11,09,13,45,68.30
2013,11,09,13,46,66.20
2013,11,09,13,47,65.00
2013,11,09,13,48,66.00
2013,11,09,13,49,67.00
2013,11,09,13,50,67.00
2013,11,09,13,51,67.00
2013,11,09,13,52,67.00
2013,11,09,13,53,67.00
2013,11,09,13,54,67.00
2013,11,09,13,55,67.00
2013,11,09,13,56,67.00
2013,11,09,13,57,68.70
2013,11,09,13,58,69.90
2013,11,09,13,59,70.00
2013,11,09,14,00,72.00
2013,11,09,14,01,73.90
2013,11,09,14,02,71.80
2013,11,09,14,03,69.60
2013,11,09,14,04,66.60
2013,11,09,14,05,64.30
2013,11,09,14,06,61.40
2013,11,09,14,07,59.40
2013,11,09,14,08,58.00
2013,11,09,14,09,58.80
2013,11,09,14,10,60.90
2013,11,09,14,11,62.50
2013,11,09,14,12,63.00
2013,11,09,14,13,62.40
2013,11,09,14,14,62.00
2013,11,09,14,15,62.00
2013,11,09,14,16,59.30
2013,11,09,14,17,55.10
2013,11,09,14,18,51.70
2013,11,09,14,19,49.40
2013,11,09,14,20,46.40
2013,11,09,14,21,46.90
2013,11,09,14,22,50.80
2013,11,09,14,23,52.90
2013,11,09,14,24,56.10
2013,11,09,14,25,58.20
2013,11,09,14,26,59.70
2013,11,09,14,27,57.20
2013,11,09,14,28,52.80
2013,11,09,14,29,48.10
2013,11,09,14,30,44.80
2013,11,09,14,31,41.30
2013,11,09,14,32,40.00
2013,11,09,14,33,40.90
2013,11,09,14,34,43.00
2013,11,09,14,35,45.00
2013,11,09,14,36,46.00
2013,11,09,14,37,43.60
2013,11,09,14,38,40.70
2013,11,09,14,39,40.00
2013,11,09,14,40,40.00
2013,11,09,14,41,41.50
2013,11,09,14,42,45.20
2013,11,09,14,43,46.00
2013,11,09,14,44,53.20
2013,11,09,14,45,57.80
2013,11,09,14,46,59.80
2013,11,09,14,47,57.80
2013,11,09,14,48,52.10
2013,11,09,14,49,43.00
2013,11,09,14,50,36.00
2013,11,09,14,51,31.50
2013,11,09,14,52,30.00
2013,11,09,14,53,30.00
2013,11,09,14,54,30.70
2013,11,09,14,55,33.10
2013,11,09,14,56,36.70
2013,11,09,14,57,40.40
2013,11,09,14,58,44.60
2013,11,09,14,59,48.10
2013,11,09,15,00,50.20
2013,11,09,15,01,52.30
2013,11,09,15,02,51.70
2013,11,09,15,03,51.00
2013,11,09,15,04,52.50
2013,11,09,15,05,53.80
2013,11,09,15,06,57.40
2013,11,09,15,07,61.60
2013,11,09,15,08,62.00
2013,11,09,15,09,60.10
2013,11,09,15,10,58.00
2013,11,09,15,11,57.60
2013,11,09,15,12,53.60
2013,11,09,15,13,50.20
2013,11,09,15,14,46.30
2013,11,09,15,15,43.50
2013,11,09,15,16,41.40
2013,11,09,15,17,40.00
2013,11,09,15,18,39.60
2013,11,09,15,19,38.10
2013,11,09,15,20,36.00
2013,11,09,15,21,34.00
2013,11,09,15,22,33.00
2013,11,09,15,23,32.40
2013,11,09,15,24,32.70
2013,11,09,15,25,34.40
2013,11,09,15,26,35.00
2013,11,09,15,27,35.00
2013,11,09,15,28,35.00
2013,11,09,15,29,33.30
2013,11,09,15,30,32.10
2013,11,09,15,31,30.10
2013,11,09,15,32,30.00
2013,11,09,15,33,24.90
2013,11,09,15,34,22.80
2013,11,09,15,35,21.00
2013,11,09,15,36,21.00
2013,11,09,15,37,21.00
2013,11,09,15,38,21.00
2013,11,09,15,39,21.60
2013,11,09,15,40,23.00
2013,11,09,15,41,22.20
2013,11,09,15,42,21.00
2013,11,09,15,43,20.00
2013,11,09,15,44,18.50
2013,11,09,15,45,18.00
2013,11,09,15,46,16.80
2013,11,09,15,47,16.00
2013,11,09,15,48,16.00
2013,11,09,15,49,16.00
2013,11,09,15,50,16.00
2013,11,09,15,51,16.00
2013,11,09,15,52,16.00
2013,11,09,15,53,17.80
2013,11,09,15,54,19.00
2013,11,09,15,55,20.90
2013,11,09,15,56,21.00
2013,11,09,15,57,20.80
2013,11,09,15,58,18.90
2013,11,09,15,59,18.00
2013,11,09,16,00,18.20
2013,11,09,16,01,18.70
2013,11,09,16,02,18.00
2013,11,09,16,03,17.30
2013,11,09,16,04,15.20
2013,11,09,16,05,13.10
2013,11,09,16,06,11.50
2013,11,09,16,07,11.00
2013,11,09,16,08,11.00
2013,11,09,16,09,9.80
2013,11,09,16,10,9.00
2013,11,09,16,11,10.30
2013,11,09,16,12,11.00
2013,11,09,16,13,11.00
2013,11,09,16,14,11.00
2013,11,09,16,15,11.00
2013,11,09,16,16,11.00
2013,11,09,16,17,9.10
2013,11,09,16,18,9.00
2013,11,09,16,19,8.90
2013,11,09,16,20,7.00
2013,11,09,16,21,6.70
2013,11,09,16,22,5.00
2013,11,09,16,23,3.80
2013,11,09,16,24,0.00
2013,11,09,16,25,0.00
2013,11,09,16,26,0.00
2013,11,09,16,27,0.00
2013,11,09,16,28,0.00
2013,11,09,16,29,0.00
2013,11,09,16,30,0.00
2013,11,09,16,31,0.00
2013,11,09,16,32,0.00
2013,11,09,16,33,0.00
2013,11,09,16,34,0.00
2013,11,09,16,35,0.00
2013,11,09,16,36,0.00
2013,11,09,16,37,0.00
2013,11,09,16,38,0.00
2013,11,09,16,39,0.00
2013,11,09,16,40,0.00
2013,11,09,16,41,0.00
2013,11,09,16,42,0.00
2013,11,09,16,43,0.00
2013,11,09,16,44,0.00
2013,11,09,16,45,0.00
2013,11,09,16,46,0.00
2013,11,09,16,47,0.00
2013,11,09,16,48,0.00
2013,11,09,16,49,0.00
2013,11,09,16,50,0.00
2013,11,09,16,51,0.00
2013,11,09,16,52,0.00
2013,11,09,16,53,0.00
2013,11,09,16,54,0.00
2013,11,09,16,55,0.00
2013,11,09,16,56,0.00
2013,11,09,16,57,0.00
2013,11,09,16,58,0.00
2013,11,09,16,59,0.00
2013,11,09,17,00,0.00
2013,11,09,17,01,0.00
2013,11,09,17,02,0.00
2013,11,09,17,03,0.00
2013,11,09,17,04,0.00
2013,11,09,17,05,0.00
2013,11,09,17,06,0.00
2013,11,09,17,07,0.00
2013,11,09,17,08,0.00
2013,11,09,17,09,0.00
2013,11,09,17,10,0.00
2013,11,09,17,11,0.00
2013,11,09,17,12,0.00
2013,11,09,17,13,0.00
2013,11,09,17,14,0.00
2013,11,09,17,15,0.00
2013,11,09,17,16,0.00
2013,11,09,17,17,0.00
2013,11,09,17,18,0.00
2013,11,09,17,19,0.00
2013,11,09,17,20,0.00
2013,11,09,17,21,0.00
2013,11,09,17,22,0.00
2013,11,09,17,23,0.00
2013,11,09,17,24,0.00
2013,11,09,17,25,0.00
2013,11,09,17,26,0.00
2013,11,09,17,27,0.00
2013,11,09,17,28,0.00
2013,11,09,17,29,0.00
2013,11,09,17,30,0.00
2013,11,09,17,31,0.00
2013,11,09,17,32,0.00
2013,11,09,17,33,0.00
2013,11,09,17,34,0.00
2013,11,09,17,35,0.00
2013,11,09,17,36,0.00
2013,11,09,17,37,0.00
2013,11,09,17,38,0.00
2013,11,09,17,39,0.00
2013,11,09,17,40,0.00